Torna al catalogo

STARLINK-36146

AttivoComunicazioniVLEO
NORAD 67426·PAYLOAD·🇺🇸 United States

Lanciato Jan 12, 2026 da Cape Canaveral Space Force Station

Loading…

Prossimi Passaggi (prossime 24 ore)

TLE

AggiornatoSource: CelesTrak SupGP

Epoca: Sep 14, 2026, 23:23 UTC

1 67426C 26005Y   26257.97479167  .00025734  00000+0  93213-3 0  2578
2 67426  42.9995 249.3897 0001457 263.1926 349.7127 15.27563984    17

Traccia STARLINK-36146 in tempo reale con AllMySat

Download on the App Store